Date,TemperatureHighF,TemperatureAvgF,TemperatureLowF,DewpointHighF,DewpointAvgF,DewpointLowF,HumidityHigh,HumidityAvg,HumidityLow,PressureMaxIn,PressureMinIn,WindSpeedMaxMPH,WindSpeedAvgMPH,GustSpeedMaxMPH,PrecipitationSumIn
2013-1-1,24.4,16.8,11.1,19.3,13.8,9.2,94,88,80,30.49,30.30,14,2,14,0.00
2013-1-2,34.9,25.4,11.1,28.7,20.6,7.4,90,82,71,30.45,30.27,16,3,16,0.00
2013-1-3,29.0,23.6,15.8,23.7,18.7,12.6,91,81,65,30.58,30.44,13,3,13,0.00
2013-1-4,34.8,19.2,10.6,21.5,13.0,6.8,89,77,55,30.47,30.28,10,3,10,0.00
2013-1-5,41.8,25.8,9.7,28.8,17.9,6.6,88,73,58,30.43,30.21,19,4,19,0.01
2013-1-6,39.7,26.5,15.1,26.1,19.3,11.9,88,75,57,30.49,30.20,17,3,17,0.00
2013-1-7,39.1,29.7,20.5,27.5,23.7,19.0,95,79,60,30.20,30.07,19,2,19,0.00
2013-1-8,40.7,26.3,12.7,33.0,22.6,10.5,95,86,69,30.36,29.99,10,1,10,0.00
2013-1-9,44.8,32.6,21.7,31.7,26.4,19.0,91,78,59,30.56,30.35,14,2,14,0.00
2013-1-10,38.4,34.6,30.2,34.6,31.5,26.0,98,89,67,30.44,29.75,13,3,13,0.09
2013-1-11,40.3,34.2,20.5,39.8,32.9,14.7,99,95,76,29.95,29.47,27,4,27,0.02
2013-1-12,20.4,15.0,8.4,14.6,7.2,3.7,82,71,58,30.37,29.95,27,7,27,0.00
2013-1-13,21.1,12.1,4.9,8.9,4.5,0.1,82,72,50,30.55,30.36,15,4,15,0.00
2013-1-14,26.2,15.2,5.0,13.9,8.2,1.0,84,74,56,30.66,30.52,12,2,12,0.00
2013-1-15,30.5,21.0,13.3,18.8,13.8,8.8,89,74,57,30.53,30.20,17,4,17,0.00
2013-1-16,52.8,37.3,19.8,31.6,26.4,12.4,86,67,38,30.42,30.12,21,4,21,0.00
2013-1-17,48.4,35.7,26.7,33.8,28.5,23.1,89,76,54,30.59,30.36,11,3,11,0.00
2013-1-18,50.8,38.8,32.0,35.2,29.8,26.2,79,70,51,30.36,30.02,16,4,16,0.00
2013-1-19,55.4,40.9,32.9,29.5,27.0,25.0,81,60,32,30.20,30.00,21,5,24,0.00
2013-1-20,21.8,19.5,18.7,12.8,11.1,9.4,77,70,61,30.59,30.55,9,2,9,0.00
2013-1-21,21.7,14.3,11.8,15.1,8.9,6.0,84,79,71,30.62,30.50,11,2,11,0.00
2013-1-22,26.3,18.6,12.6,16.1,10.4,5.2,78,70,60,30.54,30.38,12,3,12,0.00
2013-1-23,34.4,22.8,12.3,21.8,14.9,4.0,86,72,56,30.66,30.30,18,3,18,0.00
2013-1-24,20.9,13.3,4.8,10.6,4.5,-0.5,84,68,50,30.66,30.32,14,4,15,0.00
2013-1-25,52.7,33.2,16.1,31.3,22.3,10.5,85,66,33,30.43,30.30,10,2,10,0.00
2013-1-26,53.9,39.5,26.4,36.7,27.4,22.4,85,64,37,30.32,30.02,20,4,20,0.00
2013-1-27,42.6,39.3,35.4,41.1,38.4,35.0,99,97,80,30.02,29.76,15,2,15,0.07
2013-1-28,37.2,34.2,29.8,37.2,34.2,29.5,100,100,99,29.92,29.72,17,1,17,0.02
2013-1-29,35.2,32.8,29.1,32.2,30.1,25.5,99,90,72,29.90,29.76,20,5,20,0.00
2013-1-30,28.9,22.2,19.3,27.5,15.5,11.8,95,75,65,30.09,29.88,29,6,29,0.00
2013-1-31,21.0,13.5,8.7,14.4,3.2,-3.4,82,64,47,30.60,30.09,28,5,28,0.00
2013-2-1,39.7,25.8,9.7,34.5,18.9,-1.1,86,75,57,30.57,30.19,25,4,25,0.00
2013-2-2,55.0,40.8,30.1,34.9,28.3,22.0,91,65,28,30.33,30.18,28,5,28,0.00
2013-2-3,47.9,37.1,24.5,31.7,27.6,21.5,88,69,50,30.36,29.92,24,4,24,0.00
2013-2-4,37.5,31.6,26.7,29.3,26.5,23.8,92,82,65,30.13,29.92,17,4,17,0.00
2013-2-5,52.7,39.6,27.5,32.0,27.0,23.7,93,64,34,30.18,29.99,18,3,18,0.00
2013-2-6,53.4,43.3,35.1,44.0,35.7,28.5,94,75,58,30.10,29.88,22,4,22,0.00
2013-2-7,48.7,38.1,25.3,36.8,29.7,23.3,95,73,49,30.35,30.01,21,4,21,0.00
2013-2-8,34.6,28.7,24.3,30.6,26.8,23.3,97,93,85,30.40,30.17,19,4,19,0.00
2013-2-9,52.6,39.6,30.9,40.7,34.1,28.5,95,82,54,30.17,29.62,26,7,26,0.04
2013-2-10,40.3,37.6,32.4,39.8,36.4,29.2,98,95,89,29.63,29.28,24,5,24,0.04
2013-2-17,62.3,42.8,25.5,32.3,27.8,23.0,92,61,25,30.10,29.63,17,2,21,0.00
2013-2-18,45.5,34.9,24.0,32.3,23.1,16.5,73,62,47,30.23,29.66,16,8,30,0.00
2013-2-19,28.8,21.2,15.1,17.3,6.9,-1.6,82,57,27,30.50,30.25,11,5,16,0.00
2013-2-20,23.7,16.9,10.4,18.8,8.8,1.9,88,71,50,30.50,30.30,9,5,16,0.00
2013-2-21,19.6,18.4,17.4,16.8,15.2,11.6,93,87,73,30.34,30.05,12,6,19,0.00
2013-2-22,23.5,16.5,8.7,16.5,12.6,5.1,92,85,73,30.25,30.09,11,4,14,0.00
2013-2-23,26.9,13.6,9.6,23.3,10.9,7.3,90,89,86,30.18,30.00,5,2,9,0.09
2013-2-24,29.5,28.3,16.8,26.9,26.0,15.1,95,91,87,30.25,30.05,14,4,14,0.00
2013-2-25,28.0,27.3,25.6,26.8,26.1,24.1,95,95,94,30.25,30.20,7,2,7,0.00
2013-3-2,32.0,31.4,30.5,29.4,29.0,28.4,92,91,90,30.21,30.17,8,3,8,0.00
2013-3-3,45.2,36.5,28.3,37.8,32.7,27.0,96,86,73,30.17,29.73,15,3,15,0.00
2013-3-4,47.0,37.3,26.9,35.4,28.4,12.5,95,72,44,30.24,29.71,28,6,28,0.00
2013-3-5,35.4,27.2,22.0,17.7,15.0,12.0,79,60,42,30.56,30.24,26,7,28,0.00
2013-3-6,39.2,27.8,16.8,24.2,19.7,13.9,89,73,52,30.57,30.28,17,3,17,0.00
2013-3-7,52.9,37.1,23.6,33.1,27.1,20.8,89,69,43,30.29,30.15,17,4,17,0.00
2013-3-8,56.8,43.3,29.0,48.5,36.1,25.9,92,76,57,30.22,29.88,19,4,19,0.00
2013-3-9,64.2,44.2,30.5,57.0,42.0,28.0,100,92,61,29.88,29.54,26,8,26,0.38
2013-3-10,31.0,24.5,18.9,29.0,20.3,14.4,94,84,75,30.18,29.88,31,11,31,0.00
2013-3-11,53.0,30.4,13.7,33.0,20.1,10.2,87,68,39,30.21,30.00,21,5,21,0.00
2013-3-12,41.2,33.8,25.1,26.8,19.0,6.0,82,57,24,30.48,30.20,30,6,30,0.00
2013-3-13,40.4,30.4,20.0,30.6,22.1,13.8,80,71,66,30.51,30.27,13,2,13,0.00
2013-3-14,72.0,51.8,34.3,44.9,34.9,30.4,90,59,23,30.27,30.11,18,3,18,0.00
2013-3-15,76.0,57.2,44.2,46.0,39.5,36.3,76,55,26,30.11,29.73,15,4,15,0.00
2013-3-16,44.0,33.0,27.5,36.9,24.3,19.3,85,70,57,30.26,29.91,22,5,22,0.00
2013-3-17,39.5,30.9,26.2,33.8,26.9,21.5,96,85,76,30.24,29.81,15,4,15,0.05
2013-3-18,42.4,35.6,29.3,33.4,20.7,8.8,96,59,26,30.20,29.81,20,6,26,0.07
2013-3-19,49.9,38.6,29.5,30.6,20.1,9.9,87,50,27,30.48,30.16,24,4,24,0.00
2013-3-20,44.4,29.5,16.4,20.0,15.3,10.5,86,59,30,30.54,30.17,12,2,13,0.00
2013-3-21,37.1,30.7,25.9,26.9,20.0,13.8,75,64,56,30.18,29.96,20,5,20,0.00
2013-3-22,34.3,28.7,24.6,29.9,25.8,21.1,93,89,73,30.15,30.06,13,2,13,0.03
2013-3-23,30.8,29.0,24.2,29.0,26.3,21.2,94,89,81,30.29,30.13,19,5,19,0.00
2013-3-24,31.2,24.4,17.9,21.2,16.0,12.9,88,71,49,30.31,30.25,32,8,32,0.00
2013-3-25,27.8,24.6,20.4,17.9,15.3,13.6,85,68,58,30.54,30.39,26,6,26,0.00
2013-3-26,46.1,29.6,13.1,24.3,17.6,10.2,89,64,34,30.54,30.32,16,3,16,0.01
2013-3-27,54.9,40.3,28.7,31.5,27.2,23.2,80,61,39,30.34,30.23,13,2,14,0.00
2013-3-28,62.2,46.9,30.7,35.4,30.3,25.7,88,57,26,30.32,30.20,14,2,14,0.00
2013-3-29,70.2,53.4,34.6,51.3,38.1,29.6,92,59,32,30.26,30.03,18,4,18,0.18
2013-3-30,64.5,54.4,48.7,52.3,45.7,34.4,99,77,36,30.11,29.97,19,4,19,0.12
2013-3-31,62.9,50.1,39.4,44.7,34.6,28.2,88,60,30,30.12,29.96,23,4,23,0.00
2013-4-6,61.8,61.8,61.8,31.6,31.6,31.6,32,32,32,29.83,29.83,1,1,1,0.00
2013-4-7,67.6,57.6,49.3,50.0,42.9,37.2,92,61,36,29.82,29.67,18,3,19,0.48
2013-4-8,69.9,57.9,46.2,59.7,53.7,44.2,98,87,69,29.71,29.61,20,3,20,0.04
2013-4-9,61.4,32.3,22.8,59.1,30.9,20.8,98,94,87,30.19,29.53,32,9,37,0.68
2013-4-10,30.2,26.7,23.9,27.2,24.7,22.4,95,92,87,30.22,30.06,22,6,23,0.00
2013-4-11,33.4,28.6,24.0,28.1,25.1,21.6,95,87,75,30.06,29.88,20,6,20,0.00
2013-4-12,37.3,35.9,34.1,33.7,32.8,31.5,92,88,86,30.15,30.14,0,0,0,0.14
2013-4-13,54.2,36.9,30.0,42.2,33.4,28.8,97,88,62,30.17,29.89,14,2,14,0.00
2013-4-14,57.7,51.5,41.3,46.5,32.9,25.2,89,51,32,29.79,29.41,31,10,31,0.01
2013-4-15,44.6,38.2,32.2,30.1,25.1,18.9,74,59,46,30.19,29.78,18,5,18,0.00
2013-4-16,46.4,40.6,34.2,32.9,29.1,25.7,81,64,49,30.34,30.19,18,5,18,0.00
2013-4-17,43.9,36.0,31.7,35.6,33.4,29.3,97,90,65,30.28,29.96,33,7,33,0.46
2013-4-18,34.6,30.1,26.7,29.4,26.0,24.0,97,85,68,30.16,29.97,32,9,32,0.00
2013-4-19,47.9,35.8,25.5,29.3,24.6,21.6,86,66,41,30.17,30.12,20,6,20,0.00
2013-4-20,48.8,43.6,35.2,33.0,29.6,24.6,72,58,47,30.28,30.15,20,6,20,0.00
2013-4-21,69.4,51.4,36.8,47.7,38.6,31.0,91,65,34,30.21,30.02,21,4,21,0.13
2013-4-22,43.5,36.6,30.2,43.0,34.9,26.5,98,93,85,30.43,30.03,26,7,26,0.77
2013-4-23,36.8,30.9,27.3,26.8,21.5,15.9,88,69,44,30.43,30.34,21,6,21,0.00
2013-4-24,41.6,30.6,26.5,30.3,25.5,22.2,90,82,64,30.38,30.34,5,0,5,0.00
2013-4-25,71.6,52.0,32.2,37.1,31.8,27.5,86,52,21,30.35,30.03,26,6,26,0.00
2013-4-26,73.8,59.5,47.1,51.9,40.4,34.0,87,53,25,30.21,30.03,14,4,14,0.00
2013-4-27,76.5,58.4,40.7,54.0,45.3,40.2,98,68,30,30.22,29.96,13,3,13,0.00
2013-4-28,85.8,66.8,49.9,53.3,47.6,41.1,89,56,23,29.96,29.66,21,5,21,0.00
2013-4-29,84.3,67.8,53.3,57.3,46.1,40.8,72,48,24,29.83,29.46,19,4,19,0.00
2013-4-30,71.1,63.6,53.6,57.6,44.0,27.6,69,50,26,29.96,29.46,24,6,24,0.03
2013-5-1,53.2,36.3,32.2,40.9,34.2,31.1,98,93,51,30.62,29.94,26,7,26,0.53
2013-5-2,52.9,42.8,35.6,31.4,28.7,22.9,84,60,33,30.76,30.54,24,6,24,0.22
2013-5-3,54.1,43.2,31.6,29.7,24.2,13.7,76,51,20,30.54,30.18,20,4,20,0.00
2013-5-4,46.4,41.9,37.3,38.3,31.1,24.6,89,66,52,30.29,30.16,25,6,25,0.00
2013-5-5,51.8,43.0,40.7,45.2,39.2,37.4,91,87,78,30.30,30.22,14,4,14,0.00
2013-5-6,71.0,54.9,36.2,47.4,37.9,31.6,98,61,24,30.26,30.10,8,1,8,0.00
2013-5-7,65.6,58.0,51.9,56.9,51.1,35.8,90,78,45,30.11,29.96,14,2,14,0.07
2013-5-8,67.8,59.4,53.1,59.2,55.5,51.8,98,87,70,30.00,29.93,11,2,11,0.13
2013-5-9,60.1,55.5,52.3,54.5,52.8,50.5,98,91,79,30.12,29.92,15,3,15,0.03
2013-5-10,73.1,57.9,47.1,54.3,46.5,37.1,97,72,28,30.20,30.07,17,2,17,0.01
2013-5-11,62.7,56.4,48.3,45.2,32.3,21.4,73,43,22,30.37,30.13,25,5,25,0.00
2013-5-12,70.4,56.8,43.6,44.2,33.0,24.0,65,41,30,30.34,30.11,15,3,15,0.00
2013-5-13,88.5,68.9,48.8,57.4,48.9,43.2,83,54,23,30.13,29.86,22,5,22,0.00
2013-5-14,101.2,80.4,60.6,57.3,50.5,37.6,77,42,12,29.86,29.62,22,4,22,0.00
2013-5-15,83.9,73.2,61.1,50.7,43.8,36.4,53,36,21,29.87,29.77,20,4,21,0.00
2013-5-16,71.2,67.2,63.3,50.5,47.8,46.1,63,50,41,29.84,29.83,8,1,9,0.00
2013-5-18,78.2,68.5,62.8,69.3,59.3,54.9,90,73,56,29.73,29.56,23,6,23,0.19
2013-5-19,74.5,64.4,56.7,65.0,59.0,52.6,95,83,56,29.72,29.48,25,2,25,0.82
2013-5-20,70.8,62.1,55.8,57.2,53.1,48.5,95,74,46,29.73,29.55,28,5,28,0.00
2013-5-21,61.2,55.4,49.7,52.5,47.3,43.3,86,75,61,29.85,29.72,27,6,27,0.00
2013-5-22,62.4,54.0,47.2,50.8,47.1,43.5,89,78,64,30.11,29.84,19,4,19,0.00
2013-5-23,69.9,58.0,49.8,52.7,49.2,46.7,90,74,49,30.26,30.11,15,3,15,0.00
2013-5-24,75.5,63.8,54.4,63.2,55.3,49.3,87,75,53,30.25,29.99,29,6,29,0.00
2013-5-25,84.8,70.3,57.6,68.7,63.0,56.6,99,80,53,30.17,29.84,22,5,22,2.56
2013-5-26,83.7,74.2,65.2,70.4,67.0,62.5,94,79,62,29.88,29.70,22,5,22,0.00
2013-5-27,79.0,69.0,59.5,68.4,62.0,57.8,95,80,55,29.81,29.55,25,4,25,0.13
2013-5-28,78.6,68.9,57.9,65.1,61.0,55.9,95,77,59,29.73,29.60,16,3,16,0.00
2013-5-29,74.8,66.5,58.4,69.3,63.8,54.3,99,91,70,29.66,29.41,22,4,22,1.25
2013-5-30,80.3,66.8,56.9,60.3,55.1,47.6,99,71,36,29.65,29.47,18,3,18,0.01
2013-5-31,77.5,65.7,56.8,51.8,47.1,40.7,75,53,29,29.76,29.65,30,6,30,0.00
2013-6-1,61.6,56.7,52.8,51.0,48.2,46.4,87,73,63,30.15,29.74,26,6,26,0.01
2013-6-2,71.8,58.7,45.9,48.6,44.4,38.6,95,63,31,30.22,30.02,11,2,11,0.00
2013-6-3,78.4,65.0,52.0,57.8,51.2,42.7,86,63,41,30.03,29.75,28,6,28,0.00
2013-6-4,75.2,68.3,61.0,63.6,59.6,56.0,93,74,61,30.02,29.78,16,2,16,0.07
2013-6-5,64.9,58.8,53.4,58.2,51.3,45.8,83,76,69,30.12,30.01,17,3,17,0.07
2013-6-14,99.9,80.6,65.3,71.8,62.7,40.7,91,59,18,29.95,29.67,27,5,27,0.01
2013-6-15,85.0,75.1,65.4,68.2,64.1,59.7,91,70,48,29.94,29.76,19,2,19,0.01
2013-6-16,72.7,68.4,65.3,66.5,64.6,62.9,93,88,78,29.98,29.92,5,1,5,0.00